Regional Weather Roundup
Issued by NWS

Home | Current Version | Previous Version | Graphics & Text | Print | Product List | Glossary On
Versions: 1 2 3 4 5 6 7 8 9 10 11 12 13 14 15 16 17 18 19 20 21 22 23 24 25 26 27 28 29 30 31 32 33 34 35 36 37 38 39 40 41 42 43 44 45 46 47 48 49 50
000
ASUS43 KLMK 291210
RWRKY
KENTUCKY REGIONAL WEATHER ROUNDUP
NATIONAL WEATHER SERVICE LOUISVILLE KY
800 AM EDT SAT AUG 29 2015

NOTE "FAIR" INDICATES FEW OR NO CLOUDS BELOW 12,000 FEET
WITH NO SIGNIFICANT WEATHER AND/OR OBSTRUCTIONS TO VISIBILITY.

KYZ001>023-026-027-061>063-070>075-291300-
WESTERN AND SOUTH CENTRAL KENTUCKY

CITY           SKY/WX    TMP DP  RH WIND       PRES   REMARKS
PADUCAH        CLOUDY    72  67  84 S7        30.06R
HENDERSON      CLOUDY    68  63  83 S5        30.08R
OWENSBORO      MOCLDY    70  67  90 S5        30.11R
HOPKINSVILLE   CLEAR     69  65  89 SE2       30.11R
BOWLING GREEN  MOCLDY    67  64  90 CALM      30.14R
GLASGOW        CLEAR     68  68 100 CALM      30.15R
$$

KYZ024-025-028>034-038-045-046-053-291300-
NORTH CENTRAL KENTUCKY

CITY           SKY/WX    TMP DP  RH WIND       PRES   REMARKS
LOUISVILLE/SDF PTCLDY    69  64  84 SE6       30.13R
LOUISVILLE/LOU PTCLDY    70  64  81 CALM      30.14R
FORT KNOX      PTCLDY    68  64  88 S5        30.13R
$$

KYZ035>037-039>044-047>052-055>060-089>105-291300-
NORTHEAST KENTUCKY

CITY           SKY/WX    TMP DP  RH WIND       PRES   REMARKS
LEXINGTON      CLEAR     67  62  84 SE6       30.17R
COVINGTON      MOCLDY    68  62  81 S9        30.14R
FRANKFORT      PTCLDY    66  63  90 CALM      30.15R
$$

KYZ054-064>069-076>088-106>120-291300-
SOUTHEAST KENTUCKY

CITY           SKY/WX    TMP DP  RH WIND       PRES   REMARKS
JACKSON        MOSUNNY   67  61  81 CALM      30.21R
LONDON         FAIR      64  60  87 CALM      30.21R
SOMERSET       PTCLDY    61  61 100 CALM      30.21R
MIDDLESBORO    MOSUNNY   60  60  99 CALM      30.23R
MONTICELLO     SUNNY     62  62 100 CALM      30.21R FOG
$$




USA.gov is the U.S. government's official web portal to all federal, state and local government web resources and services.